Time,TemperatureF,DewpointF,PressureIn,WindDirection,WindDirectionDegrees,WindSpeedMPH,WindSpeedGustMPH,Humidity,HourlyPrecipIn,Conditions,Clouds,dailyrainin,SoftwareType,DateUTC
2013-02-01 00:03:00,32.0,9.0,-100.00,NW,304,24.0,-999.0,37,0.00,,,-99.99,,2013-02-01 05:03:00,
2013-02-01 00:12:00,32.0,9.0,-100.00,NW,304,24.0,-999.0,37,0.00,,,-99.99,,2013-02-01 05:12:00,
2013-02-01 00:52:00,34.0,12.0,-100.00,NW,308,23.0,-999.0,39,0.00,,,-99.99,,2013-02-01 05:52:00,
2013-02-01 01:02:00,34.0,12.0,-100.00,NW,308,23.0,-999.0,39,0.00,,,-99.99,,2013-02-01 06:02:00,
2013-02-01 01:12:00,34.0,12.0,-100.00,NW,308,23.0,-999.0,39,0.00,,,-99.99,,2013-02-01 06:12:00,
2013-02-01 01:52:00,34.0,13.0,-100.00,WNW,300,23.0,-999.0,42,0.00,,,-99.99,,2013-02-01 06:52:00,
2013-02-01 02:02:00,34.0,13.0,-100.00,WNW,300,23.0,-999.0,42,0.00,,,-99.99,,2013-02-01 07:02:00,
2013-02-01 02:12:00,34.0,13.0,-100.00,WNW,300,23.0,-999.0,42,0.00,,,-99.99,,2013-02-01 07:12:00,
2013-02-01 02:52:00,34.0,16.0,-100.00,WNW,289,17.0,-999.0,47,0.00,,,-99.99,,2013-02-01 07:52:00,
2013-02-01 03:01:00,34.0,16.0,-100.00,WNW,289,17.0,-999.0,47,0.00,,,-99.99,,2013-02-01 08:01:00,
2013-02-01 03:11:00,34.0,16.0,-100.00,WNW,289,17.0,-999.0,47,0.00,,,-99.99,,2013-02-01 08:11:00,
2013-02-01 03:52:00,33.0,15.0,-100.00,WSW,254,5.0,-999.0,47,0.00,,,-99.99,,2013-02-01 08:52:00,
2013-02-01 04:02:00,33.0,15.0,-100.00,WSW,254,5.0,-999.0,47,0.00,,,-99.99,,2013-02-01 09:02:00,
2013-02-01 04:11:00,33.0,15.0,-100.00,WSW,254,5.0,-999.0,47,0.00,,,-99.99,,2013-02-01 09:11:00,
2013-02-01 04:52:00,33.0,15.0,-100.00,SW,217,3.0,-999.0,48,0.00,,,-99.99,,2013-02-01 09:52:00,
2013-02-01 05:01:00,33.0,15.0,-100.00,SW,217,3.0,-999.0,48,0.00,,,-99.99,,2013-02-01 10:01:00,
2013-02-01 05:11:00,33.0,15.0,-100.00,SW,217,3.0,-999.0,48,0.00,,,-99.99,,2013-02-01 10:11:00,
2013-02-01 05:53:00,33.0,14.0,-100.00,SSE,161,2.0,-999.0,46,0.00,,,-99.99,,2013-02-01 10:53:00,
2013-02-01 06:02:00,33.0,14.0,-100.00,SSE,161,2.0,-999.0,46,0.00,,,-99.99,,2013-02-01 11:02:00,
2013-02-01 06:11:00,33.0,14.0,-100.00,SSE,161,2.0,-999.0,46,0.00,,,-99.99,,2013-02-01 11:11:00,
2013-02-01 06:53:00,34.0,16.0,-100.00,SSE,152,3.0,-999.0,47,0.00,,,-99.99,,2013-02-01 11:53:00,
2013-02-01 07:03:00,34.0,16.0,-100.00,SSE,152,3.0,-999.0,47,0.00,,,-99.99,,2013-02-01 12:03:00,
2013-02-01 07:12:00,34.0,16.0,-100.00,SSE,152,3.0,-999.0,47,0.00,,,-99.99,,2013-02-01 12:12:00,
2013-02-01 07:52:00,32.0,25.0,-100.00,SW,226,6.0,-999.0,75,0.00,,,-99.99,,2013-02-01 12:52:00,
2013-02-01 08:02:00,32.0,25.0,-100.00,SW,226,6.0,-999.0,75,0.00,,,-99.99,,2013-02-01 13:02:00,
2013-02-01 08:12:00,32.0,25.0,-100.00,SW,226,6.0,-999.0,75,0.00,,,-99.99,,2013-02-01 13:12:00,
2013-02-01 08:53:00,31.0,31.0,-100.00,NNW,329,4.0,-999.0,100,0.00,,,-99.99,,2013-02-01 13:53:00,
2013-02-01 09:03:00,31.0,31.0,-100.00,NNW,329,4.0,-999.0,100,0.00,,,-99.99,,2013-02-01 14:03:00,
2013-02-01 09:12:00,31.0,31.0,-100.00,NNW,329,4.0,-999.0,100,0.00,,,-99.99,,2013-02-01 14:12:00,
2013-02-01 09:53:00,30.0,30.0,-100.00,North,352,10.0,-999.0,100,0.00,,,-99.99,,2013-02-01 14:53:00,
2013-02-01 10:03:00,30.0,30.0,-100.00,North,352,10.0,-999.0,100,0.00,,,-99.99,,2013-02-01 15:03:00,
2013-02-01 10:12:00,30.0,30.0,-100.00,North,352,10.0,-999.0,100,0.00,,,-99.99,,2013-02-01 15:12:00,
2013-02-01 10:52:00,27.0,27.0,-100.00,NNW,336,25.0,-999.0,100,0.00,,,-99.99,,2013-02-01 15:52:00,
2013-02-01 11:03:00,27.0,27.0,-100.00,NNW,336,25.0,-999.0,100,0.00,,,-99.99,,2013-02-01 16:03:00,
2013-02-01 11:12:00,27.0,27.0,-100.00,NNW,336,25.0,-999.0,100,0.00,,,-99.99,,2013-02-01 16:12:00,
2013-02-01 11:53:00,29.0,25.0,-100.00,NW,319,28.0,-999.0,83,0.00,,,-99.99,,2013-02-01 16:53:00,
2013-02-01 12:03:00,29.0,25.0,-100.00,NW,319,28.0,-999.0,83,0.00,,,-99.99,,2013-02-01 17:03:00,
2013-02-01 12:12:00,29.0,25.0,-100.00,NW,319,28.0,-999.0,83,0.00,,,-99.99,,2013-02-01 17:12:00,
2013-02-01 12:53:00,30.0,11.0,-100.00,NW,316,28.0,-999.0,44,0.00,,,-99.99,,2013-02-01 17:53:00,
2013-02-01 13:03:00,30.0,11.0,-100.00,NW,316,28.0,-999.0,44,0.00,,,-99.99,,2013-02-01 18:03:00,
2013-02-01 14:52:00,30.0,6.0,-100.00,WNW,297,29.0,-999.0,36,0.00,,,-99.99,,2013-02-01 19:52:00,
2013-02-01 15:02:00,30.0,6.0,-100.00,WNW,297,29.0,-999.0,36,0.00,,,-99.99,,2013-02-01 20:02:00,
2013-02-01 15:12:00,30.0,6.0,-100.00,WNW,297,29.0,-999.0,36,0.00,,,-99.99,,2013-02-01 20:12:00,
2013-02-01 15:52:00,30.0,8.0,-100.00,WNW,297,28.0,-999.0,39,0.00,,,-99.99,,2013-02-01 20:52:00,
2013-02-01 16:02:00,30.0,8.0,-100.00,WNW,297,28.0,-999.0,39,0.00,,,-99.99,,2013-02-01 21:02:00,
2013-02-01 16:12:00,30.0,8.0,-100.00,WNW,297,28.0,-999.0,39,0.00,,,-99.99,,2013-02-01 21:12:00,
2013-02-01 16:53:00,29.0,7.0,-100.00,WNW,298,28.0,-999.0,38,0.00,,,-99.99,,2013-02-01 21:53:00,
2013-02-01 17:03:00,29.0,7.0,-100.00,WNW,298,28.0,-999.0,38,0.00,,,-99.99,,2013-02-01 22:03:00,
2013-02-01 17:11:00,29.0,7.0,-100.00,WNW,298,28.0,-999.0,38,0.00,,,-99.99,,2013-02-01 22:11:00,
2013-02-01 17:52:00,28.0,8.0,-100.00,WNW,298,29.0,-999.0,42,0.00,,,-99.99,,2013-02-01 22:52:00,
2013-02-01 18:02:00,28.0,8.0,-100.00,WNW,298,29.0,-999.0,42,0.00,,,-99.99,,2013-02-01 23:02:00,
2013-02-01 18:11:00,28.0,8.0,-100.00,WNW,298,29.0,-999.0,42,0.00,,,-99.99,,2013-02-01 23:11:00,
2013-02-01 18:52:00,28.0,6.0,-100.00,WNW,299,20.0,-999.0,38,0.00,,,-99.99,,2013-02-01 23:52:00,
2013-02-01 19:02:00,28.0,6.0,-100.00,WNW,299,20.0,-999.0,38,0.00,,,-99.99,,2013-02-02 00:02:00,
2013-02-01 19:11:00,28.0,6.0,-100.00,WNW,299,20.0,-999.0,38,0.00,,,-99.99,,2013-02-02 00:11:00,
2013-02-01 19:52:00,28.0,7.0,-100.00,WNW,296,25.0,-999.0,40,0.00,,,0.00,,2013-02-02 00:52:00,
2013-02-01 20:03:00,28.0,7.0,-100.00,WNW,296,25.0,-999.0,40,0.00,,,0.00,,2013-02-02 01:03:00,
2013-02-01 20:11:00,28.0,7.0,-100.00,WNW,296,25.0,-999.0,40,0.00,,,0.00,,2013-02-02 01:11:00,
2013-02-01 20:52:00,27.0,6.0,-100.00,WNW,299,24.0,-999.0,40,0.00,,,0.00,,2013-02-02 01:52:00,
2013-02-01 21:01:00,27.0,6.0,-100.00,WNW,299,24.0,-999.0,40,0.00,,,0.00,,2013-02-02 02:01:00,
2013-02-01 21:11:00,27.0,6.0,-100.00,WNW,299,24.0,-999.0,40,0.00,,,0.00,,2013-02-02 02:11:00,
2013-02-01 21:52:00,26.0,8.0,-100.00,WNW,300,21.0,-999.0,45,0.00,,,0.00,,2013-02-02 02:52:00,
2013-02-01 22:02:00,26.0,8.0,-100.00,WNW,300,21.0,-999.0,45,0.00,,,0.00,,2013-02-02 03:02:00,
2013-02-01 22:11:00,26.0,8.0,-100.00,WNW,300,21.0,-999.0,45,0.00,,,0.00,,2013-02-02 03:11:00,
2013-02-01 22:52:00,25.0,8.0,-100.00,NW,306,20.0,-999.0,48,0.00,,,0.00,,2013-02-02 03:52:00,
2013-02-01 23:02:00,25.0,8.0,-100.00,NW,306,20.0,-999.0,48,0.00,,,0.00,,2013-02-02 04:02:00,
2013-02-01 23:11:00,25.0,8.0,-100.00,NW,306,20.0,-999.0,48,0.00,,,0.00,,2013-02-02 04:11:00,
2013-02-01 23:52:00,25.0,10.0,-100.00,WNW,302,18.0,-999.0,52,0.00,,,0.00,,2013-02-02 04:52:00,